Tracking 31027 objects as of 19-Jul-2025
HD Live streaming from Space Station
objects crossing your sky now

OBJECT A

Track OBJECT A now!
10-day predictions


NORAD ID: 53444
Int'l Code: 2022-098A
Perigee: 455.2 km
Apogee: 466.1 km
Inclination: 97.5 °
Period: 93.7 minutes
Semi major axis: 6831 km
RCS: Unknown
Launch date: August 10, 2022
Source: People's Republic of China (PRC)
Launch site: Taiyaun Space Center, China (TSC)
Your satellite tracking list
TITAN 3C TRANSTAGE DEB
Track 1 satellite(s)




NASA's NSSDC Master Catalog

Two Line Element Set (TLE):
1 53444U 22098A   25199.84664779  .00018475  00000-0  50332-3 0  9999
2 53444  97.5339 309.4088 0007983 134.0549 226.1354 15.37509937163061
Source of the keplerian elements: AFSPC